SCP
-0 0 0 0 0 0 0 0 0 0 0 0 0 0 0 0 0 0 0 0 0 0 0 0 0 0 0 0 0 0 0 0 0 0 0 0 0 0 0 0 0 0 0 0 0
-0 0 0 0 0 0 0 0 0 0 0 0 0 0 0 0 0 0 0 0 0 0 0 0 0 0 0 0 0 0 0 0 0 0 0 0 0 0 0 0 0 0 0 0 0
0 0 0 0 0 0 0 0 0 0 0 0 0 0 0 0 0 0 0 0 0 0 0 0 0 0 0 0 0 0 0 0 0 0 0 0 0 0 0 0 0 0 0 0 0
0 0 0 0 0 0 0 0 0 0 0 0 0 0 0 0 0 0 0 0 0 0 0 0 0 0 0 0 0 0 0 0 0 0 0 0 0 0 0 0 0 0 0 0 0
0 0 0 0 0 0 0 0 0 0 0 0 0 0 0 0 0 0 0 0 0 0 0 0 0 0 0 0 0 0 0 0 0 0 0 0 0 0 0 0 0 0 0 0 0
0 0 0 0 0 0 0 0 0 0 0 0 0 0 0 0 0 0 0 0 0 0 0 0 0 0 0 0 0 0 0 0 0 0 0 0 0 0 0 0 0 0 0 0 0
0 0 0 0 0 0 0 0 0 0 0 0 0 0 0 0 0 0 0 0 0 0 0 0 0 0 0 0 0 0 0 0 0 0 0 0 -0 -0 0 0 0 0 0 0 0
0 0 0 0 0 0 0 0 0 0 0 0 0 0 0 0 0 0 0 0 0 0 0 0 0 0 0 0 0 0 0 0 0 0 0 0 -0 0 0 0 0 0 0 0 0
0 0 0 0 0 0 0 0 0 0 0 0 0 0 0 0 0 0 0 0 0 0 0 0 0 0 0 0 0 0 0 0 0 0 0 0 -0 0 0 0 0 0 0 0 0
0 0 0 0 0 0 0 0 0 0 0 0 0 0 0 0 0 0 0 0 0 0 0 0 0 0 0 0 0 0 0 0 0 0 0 0 0 0 0 0 0 0 0 0 0
0 0 0 0 0 0 0 0 0 0 0 0 0 0 0 0 0 0 0 0 0 0 0 0 0 0 0 0 0 0 0 0 0 0 0 0 0 0 0 0 0 0 0 0 0
0 0 0 0 0 0 0 0 0 0 0 0 0 0 0 0 0 0 0 0 0 0 0 0 0 0 0 0 0 0 0 0 0 0 0 0 0 0 0 0 0 0 0 0 0
0 0 0 0 0 0 0 0 0 0 0 0 0 0 0 0 0 0 0 0 0 0 0 0 0 0 0 0 0 0 0 0 0 0 0 0 0 0 0 0 0 0 0 0 0
0 0 0 0 0 0 0 0 0 0 0 0 0 0 0 0 0 0 0 0 0 0 0 0 0 0 0 0 0 0 0 0 0 0 0 0 0 0 0 0 0 0 0 0 0
0 0 0 0 0 0 0 0 0 0 0 0 0 0 0 0 0 0 0 0 0 0 0 0 0 0 0 0 0 0 0 0 0 0 0 0 0 -0 0 0 0 0 0 0 0
0 0 0 0 0 0 0 0 0 0 0 0 0 0 0 0 0 0 0 0 0 0 0 0 0 0 0 0 0 0 0 0 0 0 0 0 0 -0 0 0 0 0 0 0 0
0 0 0 0 0 0 0 0 0 0 0 0 0 0 0 0 0 0 0 0 0 0 0 0 0 0 0 0 0 0 0 0 0 0 0 0 0 0 0 0 0 0 0 0 0
0 0 0 0 0 0 0 0 0 0 0 0 0 0 0 0 0 0 0 0 0 0 0 0 0 0 0 0 0 0 0 0 0 0 0 0 0 0 -0 -0 0 0 0 0 0
0 0 0 0 0 0 0 0 0 0 0 0 0 0 0 0 0 0 0 0 0 0 0 0 0 0 0 0 0 0 0 0 0 0 0 0 -0 -0 0 0 -0 0 0 0 0
0 0 0 0 0 0 0 0 0 0 0 0 0 0 0 0 0 0 0 0 0 -0 0 -0 0 0 0 0 0 0 0 0 0 0 0 -0 -0 -0 0 0 -0 0 0 0 0
0 0 0 0 0 0 0 0 0 0 0 0 0 0 0 0 -0 0 0 0 -0 -0 -0 0 0 0 0 0 0 0 0 0 0 0 0 -0 -0 -0 -0 -0 0 0 0 0 0
0 0 0 0 0 0 0 0 0 0 0 0 0 0 -0 -0 -0 -0 -0 -0 -0 -0 -0 0 0 0 -0 0 0 0 -0 -0 -0 -0 -0 -0 -0 0 0 0 0 0 0 0 0
0 0 0 0 0 0 0 0 0 0 0 0 0 0 0 0 -0 -0 0 0 0 0 -0 -0 0 0 0 0 -0 -0 -0 -0 -0 -0 -0 -0 -0 -0 0 0 0 0 0 0 0
0 0 0 0 0 0 0 0 0 0 0 0 0 0 0 0 -0 -0 0 -0 0 0 -0 0 -0 0 -0 -0 0 0 -0 -0 -0 -0 -0 -0 0 -0 0 0 0 0 0 0 0
0 0 0 0 0 0 0 0 0 0 0 0 0 -0 -0 -0 -0 -0 -0 -0 0 -0 -0 0 0 0 -0 -0 -0 -0 -0 -0 -0 -0 -0 0 0 0 0 0 0 0 0 0 0
0 0 0 0 0 0 0 0 0 0 0 -0 0 -0 -0 -0 0 -0 -0 -0 -0 -0 -0 0 0 0 0 0 -0 0 0 -0 -0 -0 -0 0 0 0 0 0 0 0 0 0 -0
0 0 0 0 0 0 0 0 0 0 -0 0 0 -0 0 -0 -0 0 -0 -0 -0 -0 -0 0 0 0 0 -0 -0 -0 -0 -0 -0 0 0 0 -0 0 0 0 0 0 0 0 0
Wind_Speed_500mb
26 20 17 15 13 13 14 15 14 15 18 21 21 30 28 22 20 27 31 16 19 20 21 19 22 16 16 18 25 8 4 12 18 17 18 11 7 24 25 12 8 5 6 23 18
28 24 20 16 14 12 12 12 12 12 17 22 27 21 18 29 37 47 39 29 23 25 19 17 13 16 6 11 17 15 13 20 14 20 15 12 11 21 7 6 6 6 6 3 26
30 27 23 19 15 11 9 9 8 9 13 17 24 26 26 23 18 36 35 43 43 35 29 21 17 7 7 16 16 12 21 14 14 41 37 23 16 39 16 10 15 8 4 7 17
35 30 23 22 17 12 9 8 6 7 10 13 15 16 20 21 12 2 4 6 29 41 32 26 17 10 7 10 18 15 23 29 16 35 28 7 17 17 24 28 21 19 19 17 22
37 33 26 23 22 16 13 10 7 6 7 9 10 10 17 20 27 11 17 10 14 29 39 34 24 15 10 10 17 12 9 34 40 47 54 55 35 30 39 46 36 33 33 36 37
37 33 31 26 25 21 17 13 10 8 7 7 11 15 21 14 15 37 20 13 10 14 29 37 23 23 13 14 14 18 23 23 37 44 40 40 47 40 52 48 45 34 38 47 45
39 34 31 28 27 26 21 16 11 10 8 8 9 16 25 44 15 25 37 31 24 11 11 19 46 16 9 8 19 16 16 19 18 17 13 40 45 38 47 52 45 38 45 50 50
41 36 33 31 29 26 24 18 15 14 11 8 10 13 19 13 22 33 28 31 32 30 27 17 11 27 19 19 14 7 6 8 7 17 13 17 55 18 39 47 52 52 62 64 59
44 39 36 31 28 24 23 22 19 15 12 11 11 14 20 11 20 37 38 24 24 35 39 28 20 13 3 7 7 7 9 11 7 15 10 26 53 28 51 54 46 55 63 64 55
47 43 38 34 27 24 29 26 22 19 14 14 14 7 23 15 10 13 44 31 16 16 17 16 10 4 4 11 27 20 12 13 10 7 14 32 42 17 33 48 52 62 66 65 60
50 45 42 38 30 28 37 26 11 12 31 22 20 13 5 2 10 11 42 36 25 19 9 6 7 21 26 26 14 11 11 15 8 9 14 27 35 35 36 46 40 63 64 50 55
51 48 42 38 35 33 39 34 19 9 8 37 46 39 29 2 4 15 25 27 24 22 10 9 25 24 16 20 19 21 24 29 17 17 19 21 32 32 33 43 46 56 57 53 56
51 47 45 37 37 37 47 49 27 11 5 12 39 26 37 31 19 20 40 29 13 25 28 34 12 25 26 24 20 31 33 21 18 20 36 26 42 27 33 47 52 58 63 64 70
52 52 50 43 39 45 50 42 26 7 5 8 7 5 14 19 10 47 40 30 12 30 24 27 35 16 24 29 23 31 19 25 23 13 15 5 22 17 25 37 28 54 47 59 80
55 53 57 50 30 50 40 34 23 8 5 10 8 10 6 16 8 4 46 48 26 18 14 16 15 38 40 34 27 19 16 17 16 16 16 36 19 20 23 26 37 46 52 70 85
66 58 59 59 41 31 32 42 31 6 14 13 8 9 7 11 7 4 11 32 6 30 31 16 3 15 17 29 27 5 14 9 5 9 18 38 23 26 25 31 23 26 55 72 82
63 64 65 56 57 45 51 50 7 7 5 12 9 10 13 14 14 16 15 15 11 15 15 11 33 10 7 10 22 21 8 6 5 11 20 12 24 39 17 22 30 35 50 68 81
42 71 67 61 54 62 68 5 7 9 9 6 8 17 15 14 12 15 9 16 28 14 4 16 9 33 19 21 10 30 27 8 12 7 11 16 19 13 31 55 54 44 64 73 83
49 84 74 82 63 74 46 7 12 11 12 18 10 12 11 12 9 17 17 18 19 30 17 9 8 8 13 19 25 9 19 40 13 9 10 12 8 16 27 21 18 39 59 71 82
31 69 72 80 74 71 13 7 8 7 13 9 13 17 14 12 19 15 14 9 19 31 19 12 5 11 9 15 15 16 10 9 8 11 11 8 11 21 26 27 16 29 44 62 72
45 40 63 78 76 45 8 11 8 16 18 13 12 11 14 10 15 10 12 10 22 28 39 13 10 4 9 19 24 13 22 14 14 15 6 7 12 17 26 20 28 27 55 72 80
23 9 84 89 10 9 7 10 10 11 11 6 8 14 17 18 13 13 18 16 33 15 24 22 9 15 36 9 21 38 41 38 13 14 18 12 14 6 18 27 32 35 51 58 72
42 17 89 91 10 13 8 8 9 12 17 14 17 20 23 12 10 20 13 19 28 23 17 20 11 9 8 16 24 23 37 39 29 9 13 9 13 14 12 16 29 40 48 57 70
19 9 19 33 20 12 19 12 13 17 19 18 9 27 15 14 20 7 15 9 36 18 30 28 7 13 17 6 18 16 46 44 42 20 16 19 33 44 12 20 17 33 51 66 76
13 6 20 17 14 20 23 11 21 15 17 24 8 22 15 12 15 21 17 3 13 26 22 16 11 18 30 36 25 33 48 44 44 13 15 18 29 30 18 22 25 45 53 58 65
9 11 16 22 30 15 24 19 21 16 14 13 17 19 32 23 12 2 9 10 12 24 17 9 9 8 12 20 32 31 40 35 29 9 10 42 54 10 9 25 28 51 58 56 64
14 30 31 25 20 16 9 13 20 11 22 30 29 22 16 33 39 31 34 28 20 21 19 8 7 7 11 11 17 12 36 40 27 24 31 27 47 10 9 11 20 45 56 65 73
Wind_Direction_500mb
308 287 274 269 277 286 280 268 253 235 221 222 242 232 235 245 244 249 245 248 230 234 252 250 240 232 226 223 210 199 196 215 212 199 236 232 329 298 291 187 179 184 304 294 210
307 297 275 268 276 286 274 264 258 246 232 225 229 226 238 241 261 252 250 241 246 247 248 250 245 227 223 234 224 195 216 216 203 216 237 245 225 281 296 291 219 227 1 255 173
299 298 277 266 270 282 262 257 257 259 251 235 231 230 225 246 279 275 263 249 239 237 243 240 233 249 230 229 216 223 238 225 236 230 243 269 280 282 221 221 214 217 164 153 192
290 289 277 265 259 264 244 254 256 261 260 253 242 232 226 226 226 53 271 261 223 219 226 226 222 185 224 223 225 255 246 241 252 260 266 249 274 282 264 246 224 236 260 262 258
281 289 270 266 253 247 239 243 263 273 271 260 239 215 205 215 222 160 103 101 156 207 224 223 215 189 198 219 264 249 266 254 259 262 266 275 267 264 265 268 260 259 261 260 262
270 280 270 265 254 242 236 237 249 257 258 257 236 222 221 242 241 211 198 157 145 168 220 218 221 220 253 238 242 279 305 290 263 262 262 256 269 264 270 272 262 252 261 257 263
263 270 272 265 257 240 232 230 232 241 234 237 229 236 240 243 196 195 219 235 222 207 248 229 224 220 187 289 294 291 300 300 249 252 273 266 271 252 261 267 259 255 269 269 266
253 260 263 264 250 236 224 227 228 240 241 242 239 249 252 272 228 223 202 220 207 228 239 237 233 246 247 275 324 341 267 248 199 197 231 217 261 253 252 250 250 249 259 267 266
250 247 251 259 244 231 219 221 232 241 245 234 229 231 264 250 245 218 207 206 227 239 247 249 256 239 297 218 275 240 261 260 281 212 220 208 260 243 253 257 254 260 261 261 266
243 245 244 248 236 225 209 223 231 235 240 231 206 229 253 242 233 218 202 205 202 212 237 227 216 174 139 195 227 229 243 251 224 322 217 255 267 264 259 247 240 251 256 259 262
241 241 237 230 220 218 206 201 215 241 218 200 206 202 231 282 184 191 198 205 210 239 196 207 198 218 224 224 248 298 271 257 357 318 313 270 272 258 254 260 239 244 257 255 225
238 237 235 224 214 219 213 205 196 136 244 234 242 244 237 112 236 217 181 187 198 222 160 258 239 227 232 230 238 252 267 269 288 260 271 277 281 277 251 246 241 242 248 249 217
232 228 229 221 205 214 216 214 222 238 256 242 236 236 241 244 230 214 189 196 195 217 215 226 236 231 217 225 224 238 242 257 264 302 286 285 283 265 256 249 248 248 243 244 204
223 219 216 199 196 213 215 212 217 223 272 206 220 237 219 207 254 221 209 189 220 216 223 240 228 248 207 223 217 244 210 241 259 275 263 37 279 255 241 239 237 246 227 229 203
222 214 209 203 201 204 211 197 186 159 348 166 159 167 168 181 151 236 209 205 212 196 177 211 208 221 238 234 212 244 218 225 237 252 268 257 268 265 233 240 225 230 219 225 206
220 209 203 190 205 215 190 161 149 47 251 167 135 179 174 202 204 114 176 218 270 227 229 221 135 213 218 226 214 143 229 269 301 286 243 244 223 255 232 230 231 226 213 215 196
223 205 201 194 194 172 162 154 100 167 188 165 171 187 199 197 210 191 185 211 217 203 211 197 225 264 230 179 210 211 157 258 225 202 240 183 209 240 252 242 221 218 201 200 187
234 200 198 197 184 168 159 138 183 192 167 124 142 182 196 196 218 207 225 222 233 218 271 207 220 197 195 219 175 199 196 202 207 214 255 164 241 235 221 243 245 246 213 189 178
230 188 191 193 179 167 164 187 211 191 141 158 151 198 211 213 221 205 227 232 227 201 203 202 248 178 203 192 187 192 205 218 310 253 257 232 269 279 254 253 229 229 182 173 169
262 180 190 193 179 169 176 231 207 122 121 143 191 182 197 190 191 194 212 221 219 191 199 192 250 202 155 179 232 223 141 147 194 237 234 250 261 240 213 216 164 163 166 165 166
293 178 178 191 176 169 194 217 190 159 141 182 198 213 215 182 194 190 244 243 206 190 194 175 185 156 142 195 197 195 228 232 174 229 276 257 238 214 240 191 171 177 166 164 168
178 154 175 178 147 166 183 182 162 146 189 176 221 220 206 187 189 211 223 231 194 158 179 203 199 218 225 188 204 220 218 215 208 202 238 309 282 248 224 175 167 176 169 166 167
151 117 169 168 153 179 158 185 157 169 186 206 212 214 208 213 222 196 215 214 182 174 188 171 215 249 251 198 197 212 207 199 229 136 234 219 264 2 121 125 168 154 154 158 165
120 144 143 188 159 139 186 197 192 205 228 208 219 225 208 229 234 262 228 226 183 165 160 169 237 228 237 7 145 182 198 194 211 223 219 248 291 291 151 141 136 149 153 162 173
144 127 143 178 174 174 184 190 192 202 210 207 232 231 213 228 222 236 234 134 177 162 159 178 243 230 247 243 242 185 190 196 214 221 210 275 281 238 172 171 169 158 155 159 170
164 135 150 164 160 155 178 196 209 194 194 191 223 223 216 231 207 190 210 190 195 170 184 188 272 247 277 217 202 201 182 184 184 154 247 251 269 273 94 124 141 159 162 169 176
141 137 148 153 173 180 201 209 220 217 210 216 213 248 243 225 245 258 262 251 167 162 183 227 270 316 355 133 143 153 185 186 195 198 207 229 246 188 162 154 160 164 171 178 185
Wind_Speed_850mb
26 20 17 15 13 13 14 15 14 15 18 21 21 30 28 22 20 27 31 16 19 20 21 19 22 16 16 18 25 8 4 12 18 17 18 11 7 24 25 12 8 5 6 23 18
28 24 20 16 14 12 12 12 12 12 17 22 27 21 18 29 37 47 39 29 23 25 19 17 13 16 6 11 17 15 13 20 14 20 15 12 11 21 7 6 6 6 6 3 26
30 27 23 19 15 11 9 9 8 9 13 17 24 26 26 23 18 36 35 43 43 35 29 21 17 7 7 16 16 12 21 14 14 41 37 23 16 39 16 10 15 8 4 7 17
35 30 23 22 17 12 9 8 6 7 10 13 15 16 20 21 12 2 4 6 29 41 32 26 17 10 7 10 18 15 23 29 16 35 28 7 17 17 24 28 21 19 19 17 22
37 33 26 23 22 16 13 10 7 6 7 9 10 10 17 20 27 11 17 10 14 29 39 34 24 15 10 10 17 12 9 34 40 47 54 55 35 30 39 46 36 33 33 36 37
37 33 31 26 25 21 17 13 10 8 7 7 11 15 21 14 15 37 20 13 10 14 29 37 23 23 13 14 14 18 23 23 37 44 40 40 47 40 52 48 45 34 38 47 45
39 34 31 28 27 26 21 16 11 10 8 8 9 16 25 44 15 25 37 31 24 11 11 19 46 16 9 8 19 16 16 19 18 17 13 40 45 38 47 52 45 38 45 50 50
41 36 33 31 29 26 24 18 15 14 11 8 10 13 19 13 22 33 28 31 32 30 27 17 11 27 19 19 14 7 6 8 7 17 13 17 55 18 39 47 52 52 62 64 59
44 39 36 31 28 24 23 22 19 15 12 11 11 14 20 11 20 37 38 24 24 35 39 28 20 13 3 7 7 7 9 11 7 15 10 26 53 28 51 54 46 55 63 64 55
47 43 38 34 27 24 29 26 22 19 14 14 14 7 23 15 10 13 44 31 16 16 17 16 10 4 4 11 27 20 12 13 10 7 14 32 42 17 33 48 52 62 66 65 60
50 45 42 38 30 28 37 26 11 12 31 22 20 13 5 2 10 11 42 36 25 19 9 6 7 21 26 26 14 11 11 15 8 9 14 27 35 35 36 46 40 63 64 50 55
51 48 42 38 35 33 39 34 19 9 8 37 46 39 29 2 4 15 25 27 24 22 10 9 25 24 16 20 19 21 24 29 17 17 19 21 32 32 33 43 46 56 57 53 56
51 47 45 37 37 37 47 49 27 11 5 12 39 26 37 31 19 20 40 29 13 25 28 34 12 25 26 24 20 31 33 21 18 20 36 26 42 27 33 47 52 58 63 64 70
52 52 50 43 39 45 50 42 26 7 5 8 7 5 14 19 10 47 40 30 12 30 24 27 35 16 24 29 23 31 19 25 23 13 15 5 22 17 25 37 28 54 47 59 80
55 53 57 50 30 50 40 34 23 8 5 10 8 10 6 16 8 4 46 48 26 18 14 16 15 38 40 34 27 19 16 17 16 16 16 36 19 20 23 26 37 46 52 70 85
66 58 59 59 41 31 32 42 31 6 14 13 8 9 7 11 7 4 11 32 6 30 31 16 3 15 17 29 27 5 14 9 5 9 18 38 23 26 25 31 23 26 55 72 82
63 64 65 56 57 45 51 50 7 7 5 12 9 10 13 14 14 16 15 15 11 15 15 11 33 10 7 10 22 21 8 6 5 11 20 12 24 39 17 22 30 35 50 68 81
42 71 67 61 54 62 68 5 7 9 9 6 8 17 15 14 12 15 9 16 28 14 4 16 9 33 19 21 10 30 27 8 12 7 11 16 19 13 31 55 54 44 64 73 83
49 84 74 82 63 74 46 7 12 11 12 18 10 12 11 12 9 17 17 18 19 30 17 9 8 8 13 19 25 9 19 40 13 9 10 12 8 16 27 21 18 39 59 71 82
31 69 72 80 74 71 13 7 8 7 13 9 13 17 14 12 19 15 14 9 19 31 19 12 5 11 9 15 15 16 10 9 8 11 11 8 11 21 26 27 16 29 44 62 72
45 40 63 78 76 45 8 11 8 16 18 13 12 11 14 10 15 10 12 10 22 28 39 13 10 4 9 19 24 13 22 14 14 15 6 7 12 17 26 20 28 27 55 72 80
23 9 84 89 10 9 7 10 10 11 11 6 8 14 17 18 13 13 18 16 33 15 24 22 9 15 36 9 21 38 41 38 13 14 18 12 14 6 18 27 32 35 51 58 72
42 17 89 91 10 13 8 8 9 12 17 14 17 20 23 12 10 20 13 19 28 23 17 20 11 9 8 16 24 23 37 39 29 9 13 9 13 14 12 16 29 40 48 57 70
19 9 19 33 20 12 19 12 13 17 19 18 9 27 15 14 20 7 15 9 36 18 30 28 7 13 17 6 18 16 46 44 42 20 16 19 33 44 12 20 17 33 51 66 76
13 6 20 17 14 20 23 11 21 15 17 24 8 22 15 12 15 21 17 3 13 26 22 16 11 18 30 36 25 33 48 44 44 13 15 18 29 30 18 22 25 45 53 58 65
9 11 16 22 30 15 24 19 21 16 14 13 17 19 32 23 12 2 9 10 12 24 17 9 9 8 12 20 32 31 40 35 29 9 10 42 54 10 9 25 28 51 58 56 64
14 30 31 25 20 16 9 13 20 11 22 30 29 22 16 33 39 31 34 28 20 21 19 8 7 7 11 11 17 12 36 40 27 24 31 27 47 10 9 11 20 45 56 65 73
Wind_Direction_850mb
308 287 274 269 277 286 280 268 253 235 221 222 242 232 235 245 244 249 245 248 230 234 252 250 240 232 226 223 210 199 196 215 212 199 236 232 329 298 291 187 179 184 304 294 210
307 297 275 268 276 286 274 264 258 246 232 225 229 226 238 241 261 252 250 241 246 247 248 250 245 227 223 234 224 195 216 216 203 216 237 245 225 281 296 291 219 227 1 255 173
299 298 277 266 270 282 262 257 257 259 251 235 231 230 225 246 279 275 263 249 239 237 243 240 233 249 230 229 216 223 238 225 236 230 243 269 280 282 221 221 214 217 164 153 192
290 289 277 265 259 264 244 254 256 261 260 253 242 232 226 226 226 53 271 261 223 219 226 226 222 185 224 223 225 255 246 241 252 260 266 249 274 282 264 246 224 236 260 262 258
281 289 270 266 253 247 239 243 263 273 271 260 239 215 205 215 222 160 103 101 156 207 224 223 215 189 198 219 264 249 266 254 259 262 266 275 267 264 265 268 260 259 261 260 262
270 280 270 265 254 242 236 237 249 257 258 257 236 222 221 242 241 211 198 157 145 168 220 218 221 220 253 238 242 279 305 290 263 262 262 256 269 264 270 272 262 252 261 257 263
263 270 272 265 257 240 232 230 232 241 234 237 229 236 240 243 196 195 219 235 222 207 248 229 224 220 187 289 294 291 300 300 249 252 273 266 271 252 261 267 259 255 269 269 266
253 260 263 264 250 236 224 227 228 240 241 242 239 249 252 272 228 223 202 220 207 228 239 237 233 246 247 275 324 341 267 248 199 197 231 217 261 253 252 250 250 249 259 267 266
250 247 251 259 244 231 219 221 232 241 245 234 229 231 264 250 245 218 207 206 227 239 247 249 256 239 297 218 275 240 261 260 281 212 220 208 260 243 253 257 254 260 261 261 266
243 245 244 248 236 225 209 223 231 235 240 231 206 229 253 242 233 218 202 205 202 212 237 227 216 174 139 195 227 229 243 251 224 322 217 255 267 264 259 247 240 251 256 259 262
241 241 237 230 220 218 206 201 215 241 218 200 206 202 231 282 184 191 198 205 210 239 196 207 198 218 224 224 248 298 271 257 357 318 313 270 272 258 254 260 239 244 257 255 225
238 237 235 224 214 219 213 205 196 136 244 234 242 244 237 112 236 217 181 187 198 222 160 258 239 227 232 230 238 252 267 269 288 260 271 277 281 277 251 246 241 242 248 249 217
232 228 229 221 205 214 216 214 222 238 256 242 236 236 241 244 230 214 189 196 195 217 215 226 236 231 217 225 224 238 242 257 264 302 286 285 283 265 256 249 248 248 243 244 204
223 219 216 199 196 213 215 212 217 223 272 206 220 237 219 207 254 221 209 189 220 216 223 240 228 248 207 223 217 244 210 241 259 275 263 37 279 255 241 239 237 246 227 229 203
222 214 209 203 201 204 211 197 186 159 348 166 159 167 168 181 151 236 209 205 212 196 177 211 208 221 238 234 212 244 218 225 237 252 268 257 268 265 233 240 225 230 219 225 206
220 209 203 190 205 215 190 161 149 47 251 167 135 179 174 202 204 114 176 218 270 227 229 221 135 213 218 226 214 143 229 269 301 286 243 244 223 255 232 230 231 226 213 215 196
223 205 201 194 194 172 162 154 100 167 188 165 171 187 199 197 210 191 185 211 217 203 211 197 225 264 230 179 210 211 157 258 225 202 240 183 209 240 252 242 221 218 201 200 187
234 200 198 197 184 168 159 138 183 192 167 124 142 182 196 196 218 207 225 222 233 218 271 207 220 197 195 219 175 199 196 202 207 214 255 164 241 235 221 243 245 246 213 189 178
230 188 191 193 179 167 164 187 211 191 141 158 151 198 211 213 221 205 227 232 227 201 203 202 248 178 203 192 187 192 205 218 310 253 257 232 269 279 254 253 229 229 182 173 169
262 180 190 193 179 169 176 231 207 122 121 143 191 182 197 190 191 194 212 221 219 191 199 192 250 202 155 179 232 223 141 147 194 237 234 250 261 240 213 216 164 163 166 165 166
293 178 178 191 176 169 194 217 190 159 141 182 198 213 215 182 194 190 244 243 206 190 194 175 185 156 142 195 197 195 228 232 174 229 276 257 238 214 240 191 171 177 166 164 168
178 154 175 178 147 166 183 182 162 146 189 176 221 220 206 187 189 211 223 231 194 158 179 203 199 218 225 188 204 220 218 215 208 202 238 309 282 248 224 175 167 176 169 166 167
151 117 169 168 153 179 158 185 157 169 186 206 212 214 208 213 222 196 215 214 182 174 188 171 215 249 251 198 197 212 207 199 229 136 234 219 264 2 121 125 168 154 154 158 165
120 144 143 188 159 139 186 197 192 205 228 208 219 225 208 229 234 262 228 226 183 165 160 169 237 228 237 7 145 182 198 194 211 223 219 248 291 291 151 141 136 149 153 162 173
144 127 143 178 174 174 184 190 192 202 210 207 232 231 213 228 222 236 234 134 177 162 159 178 243 230 247 243 242 185 190 196 214 221 210 275 281 238 172 171 169 158 155 159 170
164 135 150 164 160 155 178 196 209 194 194 191 223 223 216 231 207 190 210 190 195 170 184 188 272 247 277 217 202 201 182 184 184 154 247 251 269 273 94 124 141 159 162 169 176
141 137 148 153 173 180 201 209 220 217 210 216 213 248 243 225 245 258 262 251 167 162 183 227 270 316 355 133 143 153 185 186 195 198 207 229 246 188 162 154 160 164 171 178 185